Wind_Speed
39 40 42 43 42 41 43 47 46 48 41 34 37 32 39 45 49 49 47 42 42 42 44 45 45 46 49 49 50 52 53 54 54 53 54 57 62 64 63 66 72 78 82 87
38 38 43 42 43 41 42 43 46 44 43 37 39 33 37 42 54 52 51 48 48 48 48 50 48 49 49 50 50 50 54 57 55 56 61 65 68 68 69 74 80 86 89 91
37 39 40 40 40 39 38 41 42 42 45 43 40 33 36 40 46 58 55 53 54 54 53 52 51 52 51 51 52 52 53 54 58 60 65 69 70 72 75 80 85 90 94 96
46 48 46 44 43 41 36 41 39 39 39 38 41 25 32 33 42 53 55 57 58 58 58 56 54 50 50 54 54 55 57 58 60 65 68 70 75 79 82 88 93 98 104 105
53 51 52 51 50 48 42 44 42 39 40 34 37 30 28 35 44 50 51 57 60 63 62 58 55 53 56 59 62 63 63 64 67 70 73 78 83 87 88 90 94 99 102 105
53 50 51 52 54 54 51 51 50 48 47 38 45 43 31 44 47 51 54 58 62 62 60 59 57 57 60 66 68 69 70 70 74 77 81 85 89 91 93 95 101 103 105 107
59 58 58 58 60 58 57 56 55 52 53 44 45 39 34 42 42 45 55 61 65 63 61 63 61 61 64 72 76 73 72 74 77 80 83 87 91 93 96 99 107 105 106 105
65 62 68 63 63 60 57 62 65 63 57 43 43 35 39 45 49 52 60 65 71 71 68 66 66 67 71 76 79 78 79 82 83 84 87 90 96 99 100 102 107 104 109 102
79 65 70 70 67 69 64 63 69 73 65 61 52 45 45 48 50 59 64 66 70 73 72 71 68 68 73 79 82 84 85 87 91 90 93 94 99 98 100 104 105 101 96 88
80 83 78 73 72 69 73 73 72 73 74 69 46 44 47 51 54 68 71 72 77 77 76 72 71 78 80 86 88 88 87 90 93 95 96 97 98 98 102 102 99 94 89 84
86 90 86 78 71 72 74 73 74 81 81 83 74 49 53 54 70 73 76 80 82 81 81 79 83 83 85 88 87 88 85 90 90 92 91 95 99 103 99 99 94 88 83 83
93 98 99 88 84 83 84 83 83 85 80 81 81 64 55 73 71 80 82 84 81 83 90 91 87 89 93 94 90 91 91 90 96 97 96 99 102 106 97 96 87 86 84 83
96 105 109 94 87 85 89 89 88 91 95 81 95 65 73 77 85 91 86 82 85 95 97 95 93 92 90 90 88 94 91 92 94 96 99 103 105 104 96 92 90 86 88 88
105 109 104 107 94 99 102 93 89 87 90 90 91 95 73 74 96 95 93 94 100 102 100 100 93 95 94 85 90 93 93 99 99 100 103 108 110 103 96 94 92 92 89 90
112 115 115 113 109 104 109 109 98 94 94 97 93 100 83 88 94 95 100 102 104 108 103 105 103 100 96 92 95 100 102 104 106 106 105 105 104 101 95 96 92 89 90 91
121 122 118 118 116 113 113 117 100 107 100 103 107 103 96 100 105 107 106 116 112 108 109 104 102 101 100 100 105 108 107 108 108 108 108 109 102 95 92 93 90 88 88 91
129 126 127 128 120 124 127 111 119 107 103 111 116 114 105 109 114 118 119 119 114 113 113 109 107 105 105 108 109 111 109 108 109 110 110 105 103 97 93 91 89 88 90 89
138 133 132 135 129 137 123 117 118 119 117 116 120 115 120 125 128 123 118 121 118 116 110 110 112 112 112 111 115 114 112 111 108 107 108 105 100 95 92 89 87 90 90 87
138 139 144 147 144 140 141 121 117 129 132 126 122 120 126 138 140 117 125 121 120 121 119 115 116 116 115 114 115 112 111 109 105 105 108 108 100 97 92 90 88 93 91 91
150 150 154 152 155 154 143 134 125 132 144 119 123 130 129 129 136 128 127 126 125 123 118 117 117 115 114 114 112 108 108 107 107 104 104 105 100 97 97 93 95 97 94 94
153 149 149 152 157 155 145 135 134 152 138 124 132 133 131 132 135 132 125 125 123 118 111 109 107 105 106 108 107 110 109 106 106 106 103 103 102 99 96 94 100 91 89 90
151 155 155 154 154 153 137 143 146 135 136 138 135 133 133 132 125 125 127 119 116 118 113 111 111 109 108 108 109 110 108 106 104 106 110 110 105 102 96 95 84 80 84 85
145 143 148 152 149 142 135 130 128 128 124 125 126 124 127 123 119 120 120 116 118 111 105 111 116 114 111 109 107 111 112 113 116 119 116 117 113 101 99 95 83 83 80 83
126 127 131 134 132 127 118 116 118 113 112 112 108 110 117 114 114 111 111 113 114 115 115 108 105 109 113 111 107 105 108 111 115 119 125 125 117 114 107 100 93 88 86 87
115 119 116 118 118 108 105 114 112 111 108 103 102 109 110 111 108 112 113 112 114 115 116 111 108 107 110 111 108 106 106 108 105 108 112 112 109 107 105 100 94 93 92 94
111 115 116 111 112 110 110 110 108 111 112 107 108 108 110 113 108 108 108 108 108 111 110 107 105 104 104 103 107 106 105 104 103 103 100 100 98 102 101 98 97 97 101 99
Wind_Direction
297 293 281 279 275 274 273 268 268 269 271 272 282 287 283 288 287 284 289 298 298 296 297 300 302 302 299 294 292 289 288 291 294 295 297 297 297 298 298 297 298 300 301 301
292 298 288 285 283 281 279 273 268 269 270 272 279 286 281 281 283 283 288 296 298 298 296 296 298 299 296 294 291 289 289 293 296 294 292 294 295 297 299 301 303 303 303 302
293 288 288 287 288 285 284 278 273 270 272 275 278 283 285 279 280 286 291 295 297 295 292 294 297 297 294 291 290 291 293 292 291 290 291 295 298 300 301 302 305 303 300 300
290 288 288 288 286 285 285 283 280 277 276 277 285 277 282 275 277 280 289 296 295 295 295 298 298 297 292 292 292 292 294 293 292 294 298 298 298 299 300 300 300 300 299 299
285 284 287 287 285 284 282 283 283 281 280 280 283 284 272 271 271 281 285 289 290 289 293 296 295 294 293 294 295 295 293 293 292 294 295 297 297 297 298 300 301 301 300 300
282 282 284 285 284 285 281 279 279 278 279 278 278 281 284 277 280 285 289 285 284 285 290 290 293 292 294 294 293 293 294 292 292 294 297 298 298 297 297 297 301 302 300 300
282 282 282 283 282 284 286 284 281 280 279 280 278 285 284 284 288 284 285 285 285 285 286 289 291 289 288 291 293 293 291 290 293 295 296 296 298 297 299 299 299 301 300 297
283 280 282 282 283 284 284 288 288 282 282 278 280 283 285 287 288 286 282 282 284 286 287 288 290 289 288 287 289 292 290 291 293 293 296 296 297 297 301 302 301 300 299 294
280 283 279 279 280 283 285 286 284 286 284 276 273 279 283 285 286 284 279 281 284 286 289 291 293 294 294 292 291 290 290 291 290 291 294 296 297 299 300 301 302 299 298 295
281 280 278 278 279 283 282 281 284 285 285 284 277 280 284 286 288 281 282 283 283 285 288 292 294 293 293 295 293 292 293 290 289 290 291 294 295 298 299 301 300 298 296 297
281 282 280 279 281 282 281 283 284 284 285 285 287 286 297 287 276 279 281 282 285 286 286 290 293 291 293 292 291 287 288 290 291 293 295 296 298 301 301 301 300 296 298 300
277 280 281 281 280 281 284 282 282 281 283 284 291 287 283 281 291 291 289 285 286 291 288 289 292 292 295 292 292 291 288 290 291 295 295 297 300 302 301 300 301 297 299 299
275 279 278 283 282 284 279 283 280 281 281 285 285 291 281 284 286 288 288 292 296 292 294 296 293 293 291 289 291 291 292 293 293 294 297 301 302 304 301 303 301 300 299 302
270 276 279 282 287 280 281 282 285 283 284 287 286 290 290 288 284 287 295 295 293 293 297 297 296 293 293 292 293 293 296 295 295 297 297 301 302 303 302 302 301 301 301 303
270 277 277 279 285 281 283 284 286 292 288 287 290 288 296 288 285 292 291 292 293 301 297 293 295 294 296 295 295 295 294 296 297 299 301 299 301 303 301 302 300 301 301 301
274 276 277 279 279 282 278 278 290 287 290 287 291 291 291 295 294 292 297 295 298 296 295 294 294 293 294 296 296 294 295 295 298 298 299 301 300 297 297 298 300 301 301 303
276 278 279 282 280 278 277 288 285 292 290 289 288 291 297 292 292 294 296 293 293 293 296 294 293 293 294 294 292 292 292 294 296 297 297 299 301 298 298 301 302 304 303 305
279 277 276 279 278 279 285 279 288 288 285 285 286 291 292 294 292 295 295 291 296 295 292 291 290 290 290 290 291 292 293 294 295 296 298 300 301 301 301 302 304 304 305 307
274 274 276 278 278 278 279 283 281 284 287 286 289 288 288 290 290 294 292 291 290 290 289 289 289 289 289 290 291 292 292 293 296 298 300 299 300 302 304 306 308 308 307 309
272 272 274 274 277 278 279 278 280 282 281 286 284 283 285 285 288 289 288 288 289 289 287 288 288 288 289 290 290 292 293 295 296 294 294 298 301 304 305 308 310 310 308 307
268 269 269 272 276 279 280 280 278 276 287 282 280 282 282 280 282 284 286 285 285 284 283 283 281 282 284 286 288 290 292 293 296 297 296 298 301 302 306 308 307 306 302 305
266 269 272 272 273 275 277 274 277 283 282 281 280 280 279 279 281 282 282 281 280 282 283 284 284 286 287 288 289 291 292 292 296 299 300 300 301 305 306 305 306 303 304 306
265 268 268 268 271 273 275 277 276 274 274 274 275 275 275 277 279 279 280 281 282 281 277 280 284 286 287 288 290 293 295 296 297 298 298 299 301 304 304 304 306 304 310 311
264 265 267 269 272 274 277 278 275 274 273 273 274 273 272 274 275 276 277 278 278 280 282 282 281 282 285 288 289 289 289 288 288 292 293 294 299 301 304 305 307 308 310 312
265 267 268 268 272 274 272 272 273 273 273 273 272 271 272 272 273 275 276 277 278 278 278 280 281 283 284 285 285 287 287 289 290 290 290 294 296 298 300 305 308 309 311 308
268 266 268 270 270 270 269 268 269 269 270 269 267 266 268 270 272 273 274 274 275 276 278 281 282 281 282 283 285 288 289 288 288 288 292 295 295 296 300 303 306 308 308 308
Height
10754 10752 10746 10745 10745 10746 10746 10746 10747 10744 10751 10756 10751 10753 10743 10733 10729 10728 10726 10729 10728 10727 10724 10722 10718 10713 10708 10703 10698 10694 10690 10686 10682 10678 10674 10668 10664 10659 10653 10646 10637 10630 10623 10614
10746 10743 10735 10735 10735 10737 10736 10737 10735 10738 10739 10745 10743 10744 10737 10730 10717 10715 10715 10716 10715 10714 10712 10710 10707 10702 10696 10691 10687 10683 10679 10675 10671 10666 10660 10655 10649 10642 10635 10628 10619 10610 10601 10594
10738 10733 10729 10727 10727 10727 10728 10726 10727 10730 10729 10732 10736 10736 10730 10723 10716 10699 10701 10702 10700 10698 10697 10697 10695 10689 10682 10677 10674 10671 10668 10664 10658 10652 10645 10639 10629 10622 10615 10607 10597 10586 10578 10572
10729 10722 10720 10719 10717 10717 10720 10715 10717 10719 10720 10722 10719 10733 10723 10717 10707 10697 10693 10689 10682 10679 10677 10680 10679 10674 10667 10662 10659 10656 10652 10647 10641 10634 10627 10618 10610 10604 10596 10586 10577 10568 10556 10544
10715 10712 10709 10708 10705 10706 10711 10706 10706 10709 10709 10716 10709 10719 10715 10708 10699 10687 10689 10679 10669 10662 10663 10664 10663 10660 10653 10647 10643 10640 10637 10631 10624 10617 10610 10603 10594 10585 10577 10566 10553 10542 10530 10517
10699 10700 10697 10696 10693 10694 10697 10694 10694 10697 10697 10708 10699 10703 10711 10693 10692 10683 10669 10667 10658 10654 10654 10651 10652 10649 10641 10632 10629 10627 10622 10615 10608 10600 10593 10583 10574 10563 10554 10545 10532 10521 10507 10495
10683 10684 10682 10680 10678 10681 10679 10678 10677 10683 10680 10692 10689 10694 10692 10680 10678 10670 10657 10648 10642 10643 10642 10639 10639 10637 10631 10619 10610 10609 10604 10598 10591 10582 10573 10564 10553 10542 10533 10524 10509 10498 10485 10473
10665 10672 10662 10668 10663 10665 10668 10660 10654 10654 10661 10677 10674 10684 10682 10672 10664 10653 10641 10635 10625 10623 10624 10624 10623 10620 10614 10603 10595 10591 10585 10579 10569 10561 10551 10541 10531 10522 10511 10500 10487 10475 10462 10449
10635 10655 10648 10647 10651 10646 10653 10649 10638 10629 10644 10650 10666 10671 10667 10657 10649 10635 10624 10617 10611 10605 10606 10606 10605 10600 10593 10584 10578 10571 10565 10558 10546 10540 10531 10521 10510 10499 10488 10476 10464 10450 10438 10427
10623 10617 10629 10634 10635 10638 10626 10628 10626 10616 10613 10617 10653 10654 10648 10641 10628 10608 10605 10605 10594 10592 10590 10589 10589 10581 10573 10564 10558 10550 10544 10534 10527 10518 10508 10499 10487 10476 10466 10454 10442 10427 10416 10404
10603 10596 10605 10611 10623 10616 10612 10612 10607 10592 10597 10588 10606 10643 10634 10621 10601 10597 10591 10581 10575 10574 10569 10571 10566 10558 10553 10543 10535 10529 10522 10512 10504 10492 10484 10474 10462 10451 10442 10429 10418 10404 10392 10379
10580 10573 10572 10593 10601 10600 10594 10592 10587 10579 10582 10574 10574 10608 10621 10588 10584 10571 10566 10559 10558 10555 10543 10544 10541 10537 10529 10516 10512 10502 10492 10488 10477 10468 10458 10449 10439 10427 10419 10407 10394 10382 10369 10356
10556 10548 10543 10566 10580 10579 10568 10570 10569 10562 10560 10568 10535 10575 10575 10574 10558 10546 10544 10543 10541 10528 10520 10519 10515 10509 10499 10492 10487 10474 10469 10461 10451 10442 10434 10425 10414 10404 10392 10381 10370 10358 10346 10332
10528 10521 10529 10532 10553 10544 10539 10544 10551 10544 10536 10538 10528 10520 10559 10558 10520 10520 10519 10514 10509 10498 10495 10489 10486 10477 10472 10469 10459 10449 10443 10432 10424 10417 10407 10397 10387 10376 10364 10353 10343 10333 10321 10308
10503 10497 10503 10505 10514 10515 10506 10505 10525 10530 10518 10500 10509 10491 10526 10519 10502 10502 10492 10485 10479 10479 10473 10461 10455 10447 10444 10439 10432 10423 10414 10406 10396 10389 10379 10369 10359 10349 10339 10328 10317 10307 10294 10282
10476 10474 10471 10472 10483 10477 10472 10471 10509 10495 10496 10478 10470 10471 10492 10480 10476 10468 10477 10446 10451 10449 10443 10441 10430 10423 10417 10411 10403 10395 10386 10377 10368 10360 10350 10342 10334 10324 10313 10302 10290 10279 10267 10256
10446 10447 10442 10439 10450 10437 10421 10476 10454 10472 10470 10453 10438 10440 10460 10450 10438 10442 10446 10423 10418 10413 10408 10403 10397 10392 10388 10383 10374 10366 10358 10350 10343 10334 10322 10313 10305 10296 10285 10274 10262 10253 10241 10229
10413 10411 10403 10403 10407 10386 10428 10428 10441 10434 10429 10428 10410 10425 10420 10410 10400 10414 10410 10389 10394 10387 10382 10375 10365 10361 10359 10351 10343 10335 10328 10321 10313 10303 10292 10283 10273 10265 10256 10246 10238 10227 10217 10205
10386 10379 10366 10358 10361 10367 10373 10429 10416 10392 10386 10394 10398 10399 10388 10375 10358 10392 10365 10360 10359 10356 10352 10346 10337 10332 10327 10319 10311 10304 10297 10290 10281 10269 10260 10254 10245 10236 10230 10221 10212 10202 10190 10180
10357 10349 10335 10331 10322 10320 10357 10387 10394 10367 10325 10402 10374 10358 10358 10346 10332 10347 10344 10329 10321 10322 10319 10316 10307 10299 10294 10287 10279 10272 10266 10259 10253 10245 10236 10225 10217 10209 10202 10196 10187 10177 10167 10154
10320 10306 10297 10301 10286 10282 10315 10347 10350 10306 10347 10353 10338 10329 10325 10315 10304 10303 10310 10308 10292 10288 10287 10283 10280 10275 10268 10263 10255 10247 10239 10232 10224 10215 10208 10201 10192 10185 10178 10171 10164 10156 10143 10131
10283 10273 10268 10268 10263 10259 10310 10294 10288 10318 10313 10305 10301 10295 10281 10276 10281 10275 10267 10271 10268 10260 10253 10250 10244 10242 10236 10230 10226 10219 10212 10205 10197 10189 10182 10174 10164 10155 10151 10147 10140 10131 10120 10107
10235 10252 10242 10232 10233 10247 10261 10267 10270 10268 10274 10276 10267 10266 10249 10249 10248 10240 10235 10232 10223 10224 10229 10226 10217 10210 10205 10201 10197 10189 10181 10171 10167 10161 10154 10144 10133 10128 10126 10118 10111 10104 10094 10083
10206 10215 10205 10205 10213 10215 10228 10231 10228 10230 10233 10234 10236 10234 10217 10217 10213 10210 10205 10199 10193 10188 10188 10195 10195 10185 10177 10174 10171 10166 10161 10153 10145 10137 10127 10115 10108 10098 10092 10087 10082 10075 10067 10059
10174 10178 10183 10185 10189 10204 10200 10188 10187 10187 10189 10197 10202 10192 10188 10183 10186 10178 10173 10173 10165 10159 10154 10160 10161 10159 10151 10145 10143 10139 10134 10127 10120 10110 10101 10094 10085 10075 10069 10061 10055 10049 10042 10036
10155 10150 10150 10160 10161 10157 10157 10156 10155 10149 10150 10154 10155 10161 10159 10154 10158 10152 10147 10143 10139 10131 10131 10132 10132 10127 10122 10117 10109 10105 10101 10095 10089 10083 10079 10071 10060 10050 10045 10038 10030 10025 10018 10011